Terminal Aerodrome Forecast
Issued by NWS

Home | Current Version | Previous Version | Text Only | Print | Product List | Glossary On
Versions: 1 2 3 4 5 6 7 8 9 10 11 12 13 14 15 16 17 18 19 20 21 22 23 24 25
000
FTUS44 KOHX 280315 AAA
TAFCKV
TAF AMD
KCKV 280315Z 2803/2824 36010G18KT P6SM -RA BKN025 OVC050
     FM280700 00000KT P6SM BKN035
     FM281000 22004KT 2SM -SHRA BR BKN007 OVC015
     FM281600 23006KT 2SM TSRA OVC015CB
     FM282200 25006KT P6SM OVC025=

USA.gov is the U.S. government's official web portal to all federal, state and local government web resources and services.